When you browse on this site, cookies collect data to enhance your experience and personalize the content and advertising you see.
Visit our Privacy Policy to learn more. By continuing to use the site, you agree to this use of cookies and data.
  • In Belgium
  • List of Countries
  • For 7 days
  • Water Temperature
  • Satellite Maps
  • Weather Map
  • Weather Widgets
  • user-avatar
    Login

    Hourly Weather Krasnobrodskiy

    Today, 19 January, Saturday

    Time Temperature Precipitation Wind Pressure Humidity
    00:00 -13°C° 0 mm 3 mps 740 mmHg 85%
    01:00 -13°C° 0 mm 3 mps 740 mmHg 85%
    02:00 -13°C° 0 mm 3 mps 740 mmHg 85%
    03:00 -13°C° 0 mm 3 mps 739 mmHg 85%
    04:00 -13°C° 0 mm 3 mps 739 mmHg 85%
    05:00 -13°C° 0 mm 3 mps 739 mmHg 85%
    06:00 -12°C° 0 mm 3 mps 739 mmHg 86%
    07:00 -12°C° 0 mm 4 mps 739 mmHg 84%
    08:00 -12°C° 0 mm 4 mps 739 mmHg 83%
    09:00 -12°C° 0 mm 4 mps 739 mmHg 82%
    10:00 -11°C° 0 mm 4 mps 739 mmHg 81%
    11:00 -10°C° 0 mm 4 mps 739 mmHg 79%
    12:00 -8°C° 0 mm 4 mps 739 mmHg 77%
    13:00 -8°C° 0 mm 4 mps 738 mmHg 78%
    14:00 -7°C° 0 mm 3 mps 738 mmHg 79%
    15:00 -7°C° 0 mm 3 mps 738 mmHg 80%
    16:00 -8°C° 0 mm 3 mps 738 mmHg 78%
    17:00 -9°C° 0 mm 3 mps 738 mmHg 77%
    18:00 -13°C° 0 mm 3 mps 738 mmHg 77%
    19:00 -13°C° 0 mm 3 mps 738 mmHg 76%
    20:00 -13°C° 0 mm 3 mps 738 mmHg 75%
    21:00 -13°C° 0 mm 3 mps 738 mmHg 74%
    22:00 -13°C° 0 mm 3 mps 738 mmHg 75%
    23:00 -13°C° 0 mm 3 mps 738 mmHg 76%

    Tomorrow, 20 January, Sunday

    Time Temperature Precipitation Wind Pressure Humidity
    00:00 -13°C° 0 mm 3 mps 738 mmHg 77%
    01:00 -13°C° 0 mm 3 mps 738 mmHg 77%
    02:00 -13°C° 0 mm 3 mps 738 mmHg 78%
    03:00 -12°C° 0 mm 3 mps 738 mmHg 78%
    04:00 -12°C° 0 mm 3 mps 738 mmHg 78%
    05:00 -10°C° 0 mm 3 mps 738 mmHg 78%
    06:00 -10°C° 0 mm 3 mps 737 mmHg 77%
    07:00 -9°C° 0 mm 3 mps 737 mmHg 76%
    08:00 -9°C° 0 mm 3 mps 737 mmHg 76%
    09:00 -9°C° 0 mm 4 mps 737 mmHg 75%
    10:00 -8°C° 0 mm 4 mps 737 mmHg 76%
    11:00 -7°C° 0 mm 4 mps 737 mmHg 77%
    12:00 -6°C° 0 mm 5 mps 737 mmHg 78%
    13:00 -6°C° 0 mm 5 mps 737 mmHg 79%
    14:00 -5°C° 0 mm 4 mps 737 mmHg 81%
    15:00 -5°C° 0 mm 4 mps 737 mmHg 83%
    16:00 -7°C° 0 mm 4 mps 736 mmHg 83%
    17:00 -8°C° 0 mm 4 mps 736 mmHg 84%
    18:00 -9°C° 0 mm 4 mps 736 mmHg 85%
    19:00 -9°C° 0 mm 4 mps 736 mmHg 86%
    20:00 -9°C° 0 mm 3 mps 736 mmHg 86%
    21:00 -9°C° 0 mm 3 mps 736 mmHg 87%
    22:00 -10°C° 0 mm 3 mps 736 mmHg 87%
    23:00 -10°C° 0 mm 3 mps 736 mmHg 88%

    Day after tomorrow, 21 January, Monday

    Time Temperature Precipitation Wind Pressure Humidity
    00:00 -10°C° 0 mm 2 mps 736 mmHg 88%
    01:00 -10°C° 0 mm 2 mps 736 mmHg 87%
    02:00 -12°C° 0 mm 2 mps 735 mmHg 87%
    03:00 -12°C° 0 mm 2 mps 735 mmHg 86%
    04:00 -12°C° 0 mm 2 mps 735 mmHg 84%
    05:00 -12°C° 0 mm 2 mps 735 mmHg 82%
    06:00 -12°C° 0 mm 2 mps 735 mmHg 81%
    07:00 -10°C° 0 mm 2 mps 734 mmHg 78%
    08:00 -10°C° 0 mm 2 mps 734 mmHg 76%
    09:00 -10°C° 0 mm 2 mps 734 mmHg 74%
    10:00 -8°C° 0 mm 2 mps 734 mmHg 75%
    11:00 -7°C° 0 mm 2 mps 734 mmHg 75%
    12:00 -5°C° 0 mm 2 mps 733 mmHg 76%
    13:00 -5°C° 0 mm 2 mps 733 mmHg 76%
    14:00 -6°C° 0 mm 3 mps 733 mmHg 76%
    15:00 -6°C° 0 mm 3 mps 733 mmHg 75%
    16:00 -7°C° 0 mm 4 mps 733 mmHg 75%
    17:00 -7°C° 0 mm 4 mps 733 mmHg 74%
    18:00 -8°C° 0 mm 5 mps 734 mmHg 73%
    19:00 -8°C° 0 mm 5 mps 734 mmHg 77%
    20:00 -7°C° 0 mm 5 mps 734 mmHg 81%
    21:00 -7°C° 0 mm 5 mps 734 mmHg 85%
    22:00 -7°C° 0.3 mm 5 mps 735 mmHg 87%
    23:00 -7°C° 0.3 mm 5 mps 735 mmHg 89%

    22 January, Tuesday

    Time Temperature Precipitation Wind Pressure Humidity
    00:00 -6°C° 0.3 mm 5 mps 735 mmHg 91%
    01:00 -6°C° 0.3 mm 5 mps 736 mmHg 91%
    02:00 -5°C° 0.3 mm 4 mps 736 mmHg 91%
    03:00 -5°C° 0.3 mm 4 mps 736 mmHg 91%
    04:00 -5°C° 0.1 mm 4 mps 737 mmHg 91%
    05:00 -5°C° 0.1 mm 4 mps 737 mmHg 91%
    06:00 -5°C° 0.1 mm 4 mps 738 mmHg 91%
    07:00 -6°C° 0.1 mm 3 mps 739 mmHg 92%
    08:00 -6°C° 0.1 mm 3 mps 739 mmHg 92%
    09:00 -6°C° 0.1 mm 3 mps 740 mmHg 93%
    10:00 -5°C° 0 mm 2 mps 740 mmHg 92%
    11:00 -6°C° 0 mm 2 mps 741 mmHg 91%
    12:00 -6°C° 0 mm 2 mps 741 mmHg 90%
    13:00 -4°C° 0 mm 1 mps 742 mmHg 90%
    14:00 -4°C° 0 mm 1 mps 742 mmHg 89%
    15:00 -4°C° 0 mm 1 mps 742 mmHg 89%
    16:00 -7°C° 0 mm 1 mps 742 mmHg 90%
    17:00 -8°C° 0 mm 1 mps 742 mmHg 91%
    18:00 -10°C° 0 mm 1 mps 742 mmHg 92%
    19:00 -11°C° 0 mm 1 mps 742 mmHg 92%
    20:00 -11°C° 0 mm 1 mps 742 mmHg 92%
    21:00 -12°C° 0 mm 1 mps 742 mmHg 92%
    22:00 -12°C° 0 mm 1 mps 742 mmHg 92%
    23:00 -13°C° 0 mm 1 mps 742 mmHg 92%

    23 January, Wednesday

    Time Temperature Precipitation Wind Pressure Humidity
    00:00 -13°C° 0 mm 1 mps 741 mmHg 92%
    01:00 -13°C° 0 mm 1 mps 741 mmHg 93%
    02:00 -13°C° 0 mm 1 mps 741 mmHg 93%
    03:00 -13°C° 0 mm 1 mps 741 mmHg 94%
    04:00 -13°C° 0 mm 1 mps 741 mmHg 94%
    05:00 -13°C° 0 mm 1 mps 741 mmHg 95%
    06:00 -13°C° 0 mm 1 mps 740 mmHg 96%
    07:00 -13°C° 0 mm 1 mps 740 mmHg 96%
    08:00 -13°C° 0 mm 1 mps 740 mmHg 96%
    09:00 -13°C° 0 mm 1 mps 740 mmHg 96%
    10:00 -11°C° 0 mm 1 mps 740 mmHg 95%
    11:00 -9°C° 0 mm 1 mps 740 mmHg 94%
    12:00 -7°C° 0 mm 0 mps 740 mmHg 92%
    13:00 -7°C° 0 mm 1 mps 740 mmHg 93%
    14:00 -7°C° 0 mm 1 mps 739 mmHg 93%
    15:00 -7°C° 0 mm 1 mps 739 mmHg 93%
    16:00 -9°C° 0 mm 1 mps 739 mmHg 93%
    17:00 -10°C° 0 mm 1 mps 739 mmHg 93%
    18:00 -11°C° 0 mm 1 mps 739 mmHg 94%
    19:00 -12°C° 0 mm 1 mps 739 mmHg 93%
    20:00 -12°C° 0 mm 1 mps 739 mmHg 93%
    21:00 -12°C° 0 mm 1 mps 739 mmHg 93%
    22:00 -12°C° 0 mm 1 mps 739 mmHg 94%
    23:00 -13°C° 0 mm 1 mps 739 mmHg 94%

    24 January, Thursday

    Time Temperature Precipitation Wind Pressure Humidity
    00:00 -13°C° 0 mm 1 mps 739 mmHg 94%
    01:00 -13°C° 0 mm 1 mps 739 mmHg 94%
    02:00 -13°C° 0 mm 1 mps 740 mmHg 94%
    03:00 -15°C° 0 mm 2 mps 740 mmHg 94%
    04:00 -14°C° 0 mm 2 mps 740 mmHg 95%
    05:00 -14°C° 0 mm 2 mps 740 mmHg 95%
    06:00 -13°C° 0 mm 2 mps 740 mmHg 95%
    07:00 -13°C° 0.1 mm 2 mps 740 mmHg 95%
    08:00 -13°C° 0.1 mm 2 mps 741 mmHg 95%
    09:00 -13°C° 0.1 mm 2 mps 741 mmHg 95%
    10:00 -12°C° 0 mm 2 mps 741 mmHg 94%
    11:00 -12°C° 0 mm 3 mps 741 mmHg 93%
    12:00 -10°C° 0 mm 3 mps 741 mmHg 92%
    13:00 -9°C° 0 mm 3 mps 741 mmHg 92%
    14:00 -9°C° 0 mm 3 mps 741 mmHg 91%
    15:00 -9°C° 0 mm 3 mps 741 mmHg 90%
    16:00 -10°C° 0 mm 3 mps 742 mmHg 91%
    17:00 -12°C° 0 mm 3 mps 742 mmHg 92%
    18:00 -13°C° 0 mm 3 mps 742 mmHg 92%
    19:00 -13°C° 0 mm 3 mps 742 mmHg 92%
    20:00 -14°C° 0 mm 3 mps 742 mmHg 93%
    21:00 -15°C° 0 mm 3 mps 742 mmHg 93%
    22:00 -15°C° 0 mm 3 mps 742 mmHg 93%
    23:00 -15°C° 0 mm 3 mps 742 mmHg 93%
    Show more